Location: Bermeries
(50.2863°N, 3.7551°E)
Time: 11:58:18
(UTC+00:00)

Genesis I - Pass Details

Date: 23 May 2024
Orbit: 433 x 467 km, 64.5° (Epoch: 14 June)

Event Time Altitude Azimuth Distance (km) Brightness Sun altitude
Exits shadow 02:06:59 18° 188° (S) 1,182 4.5 -12.2°
Maximum altitude 02:09:16 42° 124° (SE) 658 3.7 -11.9°
Drops below altitude 10° 02:12:39 10° 52° (NE) 1,600 7.0 -11.6°
Sets 02:14:51 0° 46° (NE) 2,485 8.6 -11.4°
